Overview Statistics Trail Chart Weather Telemetry Raw packets
 

This is the latest recevied weather packets stored in our database for station/object KE5OYL. If no packets are shown the sender has not sent any weather packets the latest 10 day(s).

<< 1 2 3 4 >>
Time Temp. Humidity Pressure Rain* Wind** Luminosity Snow
1788634144 36.11° C 42% 1013.8 hPa 0 mm - 801 W/m² -
1788633839 35° C 43% 1013.9 hPa 0 mm - 824 W/m² -
1788633537 35.56° C 43% 1014.2 hPa 0 mm - 181 W/m² -
1788633250 35.56° C 43% 1014.2 hPa 0 mm - 839 W/m² -
1788632928 35.56° C 45% 1014.2 hPa 0 mm - 213 W/m² -
1788632627 35° C 45% 1014.3 hPa 0 mm - 179 W/m² -
1788632323 34.44° C 46% 1014.4 hPa 0 mm - 833 W/m² -
1788632023 34.44° C 47% 1014.5 hPa 0 mm - 187 W/m² -
1788631722 35.56° C 46% 1014.4 hPa 0 mm - 177 W/m² -
1788631448 36.11° C 44% 1014.5 hPa 0 mm - 568 W/m² -
1788631112 36.11° C 43% 1014.9 hPa 0 mm - 789 W/m² -
1788630806 35.56° C 45% 1014.7 hPa 0 mm - 787 W/m² -
1788630501 34.44° C 46% 1014.5 hPa 0 mm - 168 W/m² -
1788630197 35° C 46% 1014.9 hPa 0 mm - 764 W/m² -
1788629893 35.56° C 44% 1015.1 hPa 0 mm - 755 W/m² -
1788629589 34.44° C 46% 1014.8 hPa 0 mm - 752 W/m² -
1788629289 35° C 46% 1015.1 hPa 0 mm - 749 W/m² -
1788628987 34.44° C 47% 1014.9 hPa 0 mm - 734 W/m² -
1788628683 34.44° C 47% 1015.2 hPa 0 mm - 728 W/m² -
1788628380 34.44° C 47% 1015.2 hPa 0 mm - 726 W/m² -
1788628076 35° C 45% 1015.2 hPa 0 mm - 720 W/m² -
1788627802 35° C 46% 1015.1 hPa 0 mm - 705 W/m² -
1788627470 34.44° C 48% 1015.3 hPa 0 mm - 696 W/m² -
1788627166 34.44° C 47% 1015.3 hPa 0 mm - 682 W/m² -
1788626866 33.89° C 47% 1015.4 hPa 0 mm - 676 W/m² -

* Rain latest hour (hover to see other rain measurements)
** Current wind speed in m/s (hover to see current wind gust speed)